| time (UTC) | temp C | wind direction | speed KPH | gust KPH | rain 1hr cm | rain 24hr cm | rain mn cm | humidity % | barometer mb |
| 20260503184604 | 13 | 258 | 8.0 | 12.9 | 0.00 | 0.00 | 0.00 | 77 | 1017.5 |
| 20260503184104 | 14 | 257 | 6.4 | 12.9 | 0.00 | 0.00 | 0.00 | 77 | 1017.5 |
| 20260503183604 | 14 | 254 | 8.0 | 12.9 | 0.00 | 0.00 | 0.00 | 76 | 1017.5 |
| 20260503183104 | 14 | 254 | 9.7 | 12.9 | 0.00 | 0.00 | 0.00 | 76 | 1017.6 |
| 20260503182604 | 14 | 263 | 8.0 | 12.9 | 0.00 | 0.00 | 0.00 | 75 | 1017.5 |
| 20260503182104 | 15 | 240 | 6.4 | 12.9 | 0.00 | 0.00 | 0.00 | 74 | 1017.5 |
| 20260503181604 | 15 | 252 | 6.4 | 11.3 | 0.00 | 0.00 | 0.00 | 73 | 1017.4 |
| 20260503181104 | 15 | 269 | 4.8 | 11.3 | 0.00 | 0.00 | 0.00 | 73 | 1017.4 |
| 20260503180605 | 15 | 259 | 3.2 | 11.3 | 0.00 | 0.00 | 0.00 | 73 | 1017.3 |
| 20260503180105 | 15 | 280 | 3.2 | 11.3 | 0.00 | 0.00 | 0.00 | 73 | 1017.3 |
| 20260503175604 | 15 | 269 | 4.8 | 11.3 | 0.00 | 0.00 | 0.00 | 73 | 1017.3 |
| 20260503175104 | 15 | 294 | 3.2 | 14.5 | 0.00 | 0.00 | 0.00 | 73 | 1017.3 |
| 20260503174104 | 15 | 316 | 4.8 | 14.5 | 0.00 | 0.00 | 0.00 | 73 | 1017.4 |
| 20260503173104 | 15 | 313 | 3.2 | 9.7 | 0.00 | 0.00 | 0.00 | 73 | 1017.3 |
| 20260503172604 | 15 | 292 | 4.8 | 9.7 | 0.00 | 0.00 | 0.00 | 73 | 1017.4 |
| 20260503172104 | 15 | 250 | 3.2 | 8.0 | 0.00 | 0.00 | 0.00 | 73 | 1017.4 |
| 20260503171604 | 15 | 250 | 3.2 | 12.9 | 0.00 | 0.00 | 0.00 | 72 | 1017.4 |
| 20260503170604 | 15 | 296 | 4.8 | 14.5 | 0.00 | 0.00 | 0.00 | 71 | 1017.4 |
| 20260503170104 | 15 | 297 | 6.4 | 14.5 | 0.00 | 0.00 | 0.00 | 71 | 1017.5 |
| 20260503160104 | 15 | 309 | 9.7 | 19.3 | 0.00 | 0.00 | 0.00 | 74 | 1018.1 |
| 20260503150604 | 15 | 310 | 9.7 | 20.9 | 0.00 | 0.00 | 0.00 | 75 | 1018.5 |
| 20260503150104 | 15 | 306 | 11.3 | 24.1 | 0.00 | 0.00 | 0.00 | 75 | 1018.5 |
| 20260503131104 | 13 | 285 | 8.0 | 12.9 | 0.00 | 0.00 | 0.00 | 78 | 1019.2 |
| 20260503130604 | 13 | 303 | 8.0 | 12.9 | 0.00 | 0.00 | 0.00 | 78 | 1019.3 |
| 20260503130104 | 13 | 325 | 8.0 | 12.9 | 0.00 | 0.00 | 0.00 | 80 | 1019.3 |
| 20260503110104 | 13 | 349 | 4.8 | 9.7 | 0.00 | 0.00 | 0.00 | 88 | 1019.7 |
| 20260503100105 | 13 | 311 | 1.6 | 8.0 | 0.00 | 0.00 | 0.00 | 90 | 1019.6 |
| 20260503090105 | 13 | 20 | 3.2 | 8.0 | 0.00 | 0.00 | 0.00 | 91 | 1019.7 |
| 20260503081605 | 13 | 23 | 4.8 | 8.0 | 0.00 | 0.00 | 0.00 | 90 | 1019.5 |
| 20260503080605 | 13 | 5 | 4.8 | 8.0 | 0.00 | 0.00 | 0.00 | 90 | 1019.4 |
| 20260503080105 | 13 | 30 | 4.8 | 8.0 | 0.00 | 0.00 | 0.00 | 90 | 1019.3 |
| 20260503072604 | 14 | 54 | 3.2 | 8.0 | 0.00 | 0.00 | 0.00 | 88 | 1019.2 |
| 20260503072105 | 15 | 12 | 4.8 | 11.3 | 0.00 | 0.00 | 0.00 | 88 | 1019.2 |
| 20260503071604 | 15 | 43 | 4.8 | 11.3 | 0.00 | 0.00 | 0.00 | 88 | 1019.1 |
| 20260503071104 | 15 | 1 | 4.8 | 9.7 | 0.00 | 0.00 | 0.00 | 87 | 1019.0 |
| 20260503070605 | 15 | 38 | 3.2 | 9.7 | 0.00 | 0.00 | 0.00 | 87 | 1019.0 |
| 20260503070104 | 15 | 66 | 4.8 | 14.5 | 0.00 | 0.00 | 0.00 | 86 | 1019.1 |
| 20260503060104 | 16 | 57 | 4.8 | 12.9 | 0.00 | 0.00 | 0.00 | 84 | 1019.3 |
| 20260503055104 | 16 | 21 | 4.8 | 19.3 | 0.00 | 0.00 | 0.00 | 83 | 1019.3 |
| 20260503054604 | 17 | 55 | 6.4 | 19.3 | 0.00 | 0.00 | 0.00 | 83 | 1019.3 |
| 20260503053104 | 17 | 60 | 9.7 | 19.3 | 0.00 | 0.00 | 0.00 | 81 | 1019.3 |
| 20260503052604 | 17 | 56 | 6.4 | 20.9 | 0.00 | 0.00 | 0.00 | 80 | 1019.3 |
| 20260503052104 | 18 | 48 | 8.0 | 20.9 | 0.00 | 0.00 | 0.00 | 79 | 1019.3 |
| 20260503051604 | 18 | 25 | 4.8 | 9.7 | 0.00 | 0.00 | 0.00 | 78 | 1019.3 |
| 20260503051104 | 18 | 18 | 4.8 | 9.7 | 0.00 | 0.00 | 0.00 | 78 | 1019.3 |
| 20260503050604 | 18 | 41 | 4.8 | 12.9 | 0.00 | 0.00 | 0.00 | 77 | 1019.3 |
| 20260503050105 | 18 | 21 | 3.2 | 12.9 | 0.00 | 0.00 | 0.00 | 76 | 1019.4 |
| 20260503045604 | 18 | 330 | 8.0 | 14.5 | 0.00 | 0.00 | 0.00 | 75 | 1019.5 |
| 20260503045104 | 18 | 312 | 4.8 | 14.5 | 0.00 | 0.00 | 0.00 | 75 | 1019.5 |
| 20260503044104 | 18 | 353 | 9.7 | 14.5 | 0.00 | 0.00 | 0.00 | 73 | 1019.6 |
| 20260503043604 | 18 | 67 | 9.7 | 14.5 | 0.00 | 0.00 | 0.00 | 75 | 1019.7 |
| 20260503043104 | 18 | 53 | 4.8 | 14.5 | 0.00 | 0.00 | 0.00 | 76 | 1019.7 |
| 20260503042604 | 18 | 68 | 3.2 | 9.7 | 0.00 | 0.00 | 0.00 | 76 | 1019.7 |
| 20260503042104 | 18 | 324 | 0.0 | 9.7 | 0.00 | 0.00 | 0.00 | 76 | 1019.7 |
| 20260503041104 | 18 | 64 | 6.4 | 14.5 | 0.00 | 0.00 | 0.00 | 74 | 1019.8 |
| 20260503040604 | 18 | 44 | 3.2 | 8.0 | 0.00 | 0.00 | 0.00 | 74 | 1019.8 |
| 20260503040104 | 18 | 51 | 3.2 | 8.0 | 0.00 | 0.00 | 0.00 | 74 | 1019.8 |
| 20260503035604 | 18 | 356 | 3.2 | 8.0 | 0.00 | 0.00 | 0.00 | 74 | 1019.9 |
| 20260503035104 | 18 | 50 | 1.6 | 8.0 | 0.00 | 0.00 | 0.00 | 73 | 1020.0 |
| 20260503033604 | 19 | 318 | 3.2 | 8.0 | 0.00 | 0.00 | 0.00 | 73 | 1020.2 |
| 20260503032604 | 18 | 308 | 6.4 | 9.7 | 0.00 | 0.00 | 0.00 | 73 | 1020.3 |
| 20260503032104 | 18 | 283 | 4.8 | 9.7 | 0.00 | 0.00 | 0.00 | 72 | 1020.4 |
| 20260503031604 | 18 | 333 | 4.8 | 14.5 | 0.00 | 0.00 | 0.00 | 72 | 1020.5 |
| 20260503031104 | 18 | 338 | 4.8 | 14.5 | 0.00 | 0.00 | 0.00 | 72 | 1020.4 |
| 20260503030604 | 18 | 306 | 4.8 | 14.5 | 0.00 | 0.00 | 0.00 | 73 | 1020.5 |
| 20260503030104 | 18 | 2 | 4.8 | 12.9 | 0.00 | 0.00 | 0.00 | 72 | 1020.6 |
| 20260503024604 | 18 | 332 | 4.8 | 9.7 | 0.00 | 0.00 | 0.00 | 70 | 1020.7 |
| 20260503024104 | 19 | 309 | 6.4 | 9.7 | 0.00 | 0.00 | 0.00 | 69 | 1020.8 |
| 20260503023603 | 19 | 329 | 3.2 | 9.7 | 0.00 | 0.00 | 0.00 | 71 | 1020.8 |
| 20260503023104 | 18 | 320 | 3.2 | 9.7 | 0.00 | 0.00 | 0.00 | 73 | 1020.9 |
| 20260503022603 | 18 | 303 | 3.2 | 8.0 | 0.00 | 0.00 | 0.00 | 72 | 1021.0 |
| 20260503022104 | 18 | 300 | 3.2 | 8.0 | 0.00 | 0.00 | 0.00 | 71 | 1021.1 |
| 20260503021104 | 19 | 343 | 3.2 | 8.0 | 0.00 | 0.00 | 0.00 | 71 | 1021.3 |
| 20260503020604 | 19 | 297 | 1.6 | 8.0 | 0.00 | 0.00 | 0.00 | 69 | 1021.4 |
| 20260503015604 | 19 | 312 | 1.6 | 12.9 | 0.00 | 0.00 | 0.00 | 72 | 1021.6 |
| 20260503015103 | 19 | 0 | 3.2 | 8.0 | 0.00 | 0.00 | 0.00 | 71 | 1021.6 |
| 20260503014603 | 19 | 56 | 3.2 | 14.5 | 0.00 | 0.00 | 0.00 | 71 | 1021.6 |
| 20260503014104 | 20 | 283 | 8.0 | 14.5 | 0.00 | 0.00 | 0.00 | 70 | 1021.7 |
| 20260503013103 | 19 | 307 | 1.6 | 4.8 | 0.00 | 0.00 | 0.00 | 72 | 1022.0 |
| 20260503012603 | 18 | 326 | 3.2 | 8.0 | 0.00 | 0.00 | 0.00 | 71 | 1022.1 |
| 20260503012104 | 18 | 23 | 3.2 | 8.0 | 0.00 | 0.00 | 0.00 | 70 | 1022.2 |
| 20260503011604 | 18 | 283 | 1.6 | 12.9 | 0.00 | 0.00 | 0.00 | 73 | 1022.2 |
| 20260503010604 | 18 | 356 | 6.4 | 12.9 | 0.00 | 0.00 | 0.00 | 72 | 1022.3 |
| 20260503010104 | 18 | 304 | 3.2 | 9.7 | 0.00 | 0.00 | 0.00 | 73 | 1022.4 |
| 20260503004604 | 17 | 323 | 0.0 | 9.7 | 0.00 | 0.00 | 0.00 | 75 | 1022.4 |
| 20260503003604 | 17 | 297 | 3.2 | 8.0 | 0.00 | 0.00 | 0.00 | 74 | 1022.6 |
| 20260503003104 | 17 | 68 | 3.2 | 9.7 | 0.00 | 0.00 | 0.00 | 75 | 1022.6 |
| 20260503002605 | 17 | 322 | 3.2 | 9.7 | 0.00 | 0.00 | 0.00 | 76 | 1022.6 |
| 20260503001604 | 16 | 0 | 6.4 | 14.5 | 0.00 | 0.00 | 0.00 | 76 | 1022.7 |
| 20260503001105 | 16 | 357 | 6.4 | 14.5 | 0.00 | 0.00 | 0.00 | 77 | 1022.7 |
| 20260503000604 | 16 | 355 | 4.8 | 11.3 | 0.00 | 0.00 | 0.00 | 77 | 1022.7 |
| 20260503000105 | 16 | 313 | 4.8 | 16.1 | 0.00 | 0.00 | 0.00 | 79 | 1022.8 |
| 20260502235605 | 15 | 295 | 3.2 | 16.1 | 0.00 | 0.00 | 0.00 | 80 | 1022.8 |
| 20260502235104 | 15 | 338 | 4.8 | 14.5 | 0.00 | 0.00 | 0.00 | 80 | 1022.8 |
| 20260502234605 | 15 | 6 | 6.4 | 14.5 | 0.00 | 0.00 | 0.00 | 80 | 1022.8 |
| 20260502234104 | 15 | 329 | 3.2 | 9.7 | 0.00 | 0.00 | 0.00 | 81 | 1022.9 |
| 20260502233104 | 15 | 35 | 4.8 | 11.3 | 0.00 | 0.00 | 0.00 | 83 | 1022.9 |
| 20260502232604 | 14 | 0 | 8.0 | 14.5 | 0.00 | 0.00 | 0.00 | 83 | 1022.8 |
| 20260502232105 | 14 | 342 | 8.0 | 14.5 | 0.00 | 0.00 | 0.00 | 84 | 1022.9 |
| 20260502231604 | 13 | 4 | 8.0 | 14.5 | 0.00 | 0.00 | 0.00 | 85 | 1022.9 |
| 20260502231104 | 13 | 301 | 6.4 | 11.3 | 0.00 | 0.00 | 0.00 | 87 | 1022.9 |
| 20260502230605 | 13 | 355 | 3.2 | 9.7 | 0.00 | 0.00 | 0.00 | 89 | 1022.9 |
| 20260502230105 | 13 | 300 | 4.8 | 9.7 | 0.00 | 0.00 | 0.00 | 89 | 1023.0 |
| 20260502225604 | 13 | 327 | 4.8 | 9.7 | 0.00 | 0.00 | 0.00 | 90 | 1023.0 |
| 20260502225104 | 13 | 304 | 9.7 | 14.5 | 0.00 | 0.00 | 0.00 | 92 | 1023.0 |
| 20260502224605 | 12 | 334 | 8.0 | 16.1 | 0.00 | 0.00 | 0.00 | 94 | 1023.0 |
| 20260502224104 | 12 | 340 | 4.8 | 16.1 | 0.00 | 0.00 | 0.00 | 95 | 1022.9 |
| 20260502223605 | 12 | 323 | 8.0 | 11.3 | 0.00 | 0.00 | 0.00 | 96 | 1023.0 |
| 20260502223105 | 12 | 324 | 4.8 | 9.7 | 0.00 | 0.00 | 0.00 | 97 | 1023.0 |
| 20260502222604 | 11 | 314 | 4.8 | 11.3 | 0.00 | 0.00 | 0.00 | 97 | 1022.9 |
| 20260502222104 | 11 | 4 | 4.8 | 11.3 | 0.00 | 0.00 | 0.00 | 97 | 1023.0 |
| 20260502221604 | 11 | 310 | 4.8 | 11.3 | 0.00 | 0.00 | 0.00 | 97 | 1023.0 |
| 20260502220104 | 11 | 300 | 1.6 | 8.0 | 0.00 | 0.00 | 0.00 | 98 | 1022.8 |
| 20260502215604 | 11 | 293 | 4.8 | 8.0 | 0.00 | 0.00 | 0.00 | 98 | 1022.8 |
| 20260502215104 | 11 | 290 | 3.2 | 8.0 | 0.00 | 0.00 | 0.00 | 97 | 1022.9 |
| 20260502214604 | 11 | 286 | 3.2 | 8.0 | 0.00 | 0.00 | 0.00 | 97 | 1022.8 |
| 20260502214105 | 11 | 287 | 1.6 | 4.8 | 0.00 | 0.00 | 0.00 | 97 | 1022.8 |
| 20260502213604 | 11 | 287 | 3.2 | 4.8 | 0.00 | 0.00 | 0.00 | 97 | 1022.8 |
| 20260502213104 | 11 | 286 | 3.2 | 4.8 | 0.00 | 0.00 | 0.00 | 97 | 1022.6 |
| 20260502212605 | 11 | 275 | 3.2 | 4.8 | 0.00 | 0.00 | 0.00 | 97 | 1022.5 |
| 20260502211604 | 11 | 306 | 1.6 | 8.0 | 0.00 | 0.00 | 0.00 | 97 | 1022.3 |
| 20260502211104 | 11 | 305 | 3.2 | 8.0 | 0.00 | 0.00 | 0.00 | 97 | 1022.4 |
| 20260502210604 | 11 | 323 | 3.2 | 8.0 | 0.00 | 0.00 | 0.00 | 97 | 1022.3 |
| 20260502210104 | 11 | 4 | 1.6 | 8.0 | 0.00 | 0.00 | 0.00 | 97 | 1022.1 |
| 20260502205605 | 11 | 8 | 3.2 | 8.0 | 0.00 | 0.00 | 0.00 | 97 | 1022.0 |
| 20260502204604 | 11 | 4 | 3.2 | 4.8 | 0.00 | 0.00 | 0.00 | 97 | 1021.9 |
| 20260502204104 | 11 | 4 | 3.2 | 8.0 | 0.00 | 0.00 | 0.00 | 97 | 1021.9 |
| 20260502203604 | 11 | 4 | 3.2 | 8.0 | 0.00 | 0.00 | 0.00 | 97 | 1022.0 |
| 20260502203105 | 11 | 14 | 3.2 | 8.0 | 0.00 | 0.00 | 0.00 | 97 | 1022.1 |
| 20260502202604 | 11 | 324 | 4.8 | 8.0 | 0.00 | 0.00 | 0.00 | 97 | 1022.1 |
| 20260502202104 | 11 | 340 | 4.8 | 8.0 | 0.00 | 0.00 | 0.00 | 97 | 1021.9 |
| 20260502201604 | 11 | 308 | 3.2 | 8.0 | 0.00 | 0.00 | 0.00 | 97 | 1022.0 |
| 20260502201105 | 11 | 4 | 3.2 | 8.0 | 0.00 | 0.00 | 0.00 | 97 | 1022.0 |
| 20260502200605 | 11 | 4 | 3.2 | 8.0 | 0.00 | 0.00 | 0.00 | 97 | 1022.0 |
| 20260502195605 | 11 | 357 | 3.2 | 8.0 | 0.00 | 0.00 | 0.00 | 97 | 1022.0 |
| 20260502195104 | 11 | 357 | 4.8 | 8.0 | 0.00 | 0.00 | 0.00 | 97 | 1022.1 |
| 20260502194605 | 11 | 357 | 3.2 | 8.0 | 0.00 | 0.00 | 0.00 | 97 | 1022.1 |
| 20260502194104 | 11 | 321 | 3.2 | 8.0 | 0.00 | 0.00 | 0.00 | 97 | 1022.1 |
| 20260502193104 | 11 | 340 | 3.2 | 9.7 | 0.00 | 0.00 | 0.00 | 97 | 1022.1 |
| 20260502192604 | 11 | 348 | 4.8 | 8.0 | 0.00 | 0.00 | 0.00 | 97 | 1022.1 |
| 20260502192104 | 11 | 26 | 4.8 | 8.0 | 0.00 | 0.00 | 0.00 | 97 | 1022.1 |
| 20260502191604 | 11 | 329 | 3.2 | 8.0 | 0.00 | 0.00 | 0.00 | 97 | 1022.1 |
| 20260502191104 | 11 | 302 | 1.6 | 8.0 | 0.00 | 0.00 | 0.00 | 97 | 1022.0 |
| 20260502190604 | 11 | 3 | 3.2 | 8.0 | 0.00 | 0.00 | 0.00 | 97 | 1022.0 |